Time,TemperatureF,DewpointF,PressureIn,WindDirection,WindDirectionDegrees,WindSpeedMPH,WindSpeedGustMPH,Humidity,HourlyPrecipIn,Conditions,Clouds,dailyrainin,SoftwareType,DateUTC
2013-03-09 00:00:00,28.4,23.9,30.46,WNW,287,0.0,1.0,83,0.00,,,0.00,VWS V14.01,2013-03-09 05:00:00,
2013-03-09 00:01:00,28.3,23.8,30.46,WNW,287,0.0,0.0,83,0.00,,,0.00,VWS V14.01,2013-03-09 05:01:00,
2013-03-09 00:06:00,28.1,23.9,30.45,WNW,287,0.0,2.0,84,0.00,,,0.00,VWS V14.01,2013-03-09 05:06:00,
2013-03-09 00:11:00,28.0,23.8,30.46,WNW,287,0.0,2.0,84,0.00,,,0.00,VWS V14.01,2013-03-09 05:11:00,
2013-03-09 00:16:00,27.8,23.6,30.45,WNW,287,0.0,2.0,84,0.00,,,0.00,VWS V14.01,2013-03-09 05:16:00,
2013-03-09 00:21:00,27.7,23.5,30.45,WNW,287,0.0,2.0,84,0.00,,,0.00,VWS V14.01,2013-03-09 05:21:00,
2013-03-09 00:26:00,27.4,23.2,30.45,WNW,287,0.0,2.0,84,0.00,,,0.00,VWS V14.01,2013-03-09 05:26:00,
2013-03-09 00:31:00,27.2,23.0,30.45,WNW,287,0.0,0.0,84,0.00,,,0.00,VWS V14.01,2013-03-09 05:31:00,
2013-03-09 00:36:00,27.0,23.1,30.46,WNW,287,0.0,0.0,85,0.00,,,0.00,VWS V14.01,2013-03-09 05:36:00,
2013-03-09 00:42:00,26.9,23.0,30.46,WNW,287,0.0,0.0,85,0.00,,,0.00,VWS V14.01,2013-03-09 05:42:00,
2013-03-09 00:47:00,26.7,23.1,30.46,WNW,287,0.0,0.0,86,0.00,,,0.00,VWS V14.01,2013-03-09 05:47:00,
2013-03-09 00:52:00,26.7,23.1,30.46,WNW,287,0.0,0.0,86,0.00,,,0.00,VWS V14.01,2013-03-09 05:52:00,
2013-03-09 00:57:00,26.8,23.5,30.46,WNW,287,0.0,0.0,87,0.00,,,0.00,VWS V14.01,2013-03-09 05:57:00,
2013-03-09 01:02:00,26.9,23.6,30.46,WNW,287,0.0,0.0,87,0.00,,,0.00,VWS V14.01,2013-03-09 06:02:00,
2013-03-09 01:07:00,26.9,23.6,30.46,WNW,287,0.0,0.0,87,0.00,,,0.00,VWS V14.01,2013-03-09 06:07:00,
2013-03-09 01:12:00,26.8,23.5,30.46,WNW,287,0.0,0.0,87,0.00,,,0.00,VWS V14.01,2013-03-09 06:12:00,
2013-03-09 01:17:00,27.0,23.9,30.46,WNW,287,0.0,0.0,88,0.00,,,0.00,VWS V14.01,2013-03-09 06:17:00,
2013-03-09 01:23:00,27.1,24.0,30.46,WNW,287,0.0,0.0,88,0.00,,,0.00,VWS V14.01,2013-03-09 06:23:00,
2013-03-09 01:28:00,27.1,23.8,30.46,WNW,287,0.0,0.0,87,0.00,,,0.00,VWS V14.01,2013-03-09 06:28:00,
2013-03-09 01:33:00,27.0,23.6,30.46,WNW,287,0.0,0.0,87,0.00,,,0.00,VWS V14.01,2013-03-09 06:33:00,
2013-03-09 01:38:00,26.9,23.6,30.45,WNW,287,0.0,0.0,87,0.00,,,0.00,VWS V14.01,2013-03-09 06:38:00,
2013-03-09 01:43:00,26.8,23.5,30.45,WNW,287,0.0,0.0,87,0.00,,,0.00,VWS V14.01,2013-03-09 06:43:00,
2013-03-09 01:48:00,26.7,23.4,30.45,WNW,287,0.0,0.0,87,0.00,,,0.00,VWS V14.01,2013-03-09 06:48:00,
2013-03-09 01:53:00,26.6,23.3,30.44,WNW,287,0.0,0.0,87,0.00,,,0.00,VWS V14.01,2013-03-09 06:53:00,
2013-03-09 01:58:00,26.4,23.1,30.44,WNW,287,0.0,0.0,87,0.00,,,0.00,VWS V14.01,2013-03-09 06:58:00,
2013-03-09 02:03:00,26.3,23.0,30.44,WNW,287,0.0,0.0,87,0.00,,,0.00,VWS V14.01,2013-03-09 07:03:00,
2013-03-09 02:09:00,26.5,23.4,30.44,WNW,287,0.0,0.0,88,0.00,,,0.00,VWS V14.01,2013-03-09 07:09:00,
2013-03-09 02:14:00,26.6,23.5,30.44,WNW,287,0.0,0.0,88,0.00,,,0.00,VWS V14.01,2013-03-09 07:14:00,
2013-03-09 02:19:00,26.7,23.6,30.43,WNW,287,0.0,0.0,88,0.00,,,0.00,VWS V14.01,2013-03-09 07:19:00,
2013-03-09 02:24:00,26.6,23.5,30.42,WNW,287,0.0,0.0,88,0.00,,,0.00,VWS V14.01,2013-03-09 07:24:00,
2013-03-09 02:29:00,26.5,23.4,30.43,WNW,287,0.0,0.0,88,0.00,,,0.00,VWS V14.01,2013-03-09 07:29:00,
2013-03-09 02:34:00,26.3,23.0,30.42,WNW,287,0.0,0.0,87,0.00,,,0.00,VWS V14.01,2013-03-09 07:34:00,
2013-03-09 02:39:00,26.2,23.1,30.42,WNW,287,0.0,0.0,88,0.00,,,0.00,VWS V14.01,2013-03-09 07:39:00,
2013-03-09 02:44:00,26.0,22.9,30.42,WNW,287,0.0,0.0,88,0.00,,,0.00,VWS V14.01,2013-03-09 07:44:00,
2013-03-09 02:49:00,25.9,22.8,30.42,WNW,287,0.0,0.0,88,0.00,,,0.00,VWS V14.01,2013-03-09 07:49:00,
2013-03-09 02:54:00,25.8,22.7,30.41,WNW,287,0.0,0.0,88,0.00,,,0.00,VWS V14.01,2013-03-09 07:54:00,
2013-03-09 02:59:00,25.5,22.5,30.41,WNW,287,0.0,0.0,88,0.00,,,0.00,VWS V14.01,2013-03-09 07:59:00,
2013-03-09 03:04:00,25.4,22.4,30.41,WNW,287,0.0,0.0,88,0.00,,,0.00,VWS V14.01,2013-03-09 08:04:00,
2013-03-09 03:09:00,25.3,22.2,30.41,WNW,287,0.0,0.0,88,0.00,,,0.00,VWS V14.01,2013-03-09 08:09:00,
2013-03-09 03:15:00,25.4,22.6,30.41,WNW,287,0.0,0.0,89,0.00,,,0.00,VWS V14.01,2013-03-09 08:15:00,
2013-03-09 03:20:00,25.4,22.6,30.41,WNW,287,1.0,2.0,89,0.00,,,0.00,VWS V14.01,2013-03-09 08:20:00,
2013-03-09 03:25:00,25.3,22.5,30.42,WNW,287,1.0,2.0,89,0.00,,,0.00,VWS V14.01,2013-03-09 08:25:00,
2013-03-09 03:30:00,25.1,22.3,30.41,WNW,287,0.0,0.0,89,0.00,,,0.00,VWS V14.01,2013-03-09 08:30:00,
2013-03-09 03:35:00,24.9,22.1,30.41,WNW,287,0.0,0.0,89,0.00,,,0.00,VWS V14.01,2013-03-09 08:35:00,
2013-03-09 03:40:00,24.7,21.9,30.41,WNW,287,0.0,0.0,89,0.00,,,0.00,VWS V14.01,2013-03-09 08:40:00,
2013-03-09 03:45:00,24.3,21.5,30.41,WNW,287,0.0,0.0,89,0.00,,,0.00,VWS V14.01,2013-03-09 08:45:00,
2013-03-09 03:50:00,24.0,21.2,30.41,WNW,287,0.0,1.0,89,0.00,,,0.00,VWS V14.01,2013-03-09 08:50:00,
2013-03-09 03:55:00,23.8,21.0,30.41,WNW,287,0.0,1.0,89,0.00,,,0.00,VWS V14.01,2013-03-09 08:55:00,
2013-03-09 04:00:00,23.7,20.9,30.41,WNW,287,0.0,0.0,89,0.00,,,0.00,VWS V14.01,2013-03-09 09:00:00,
2013-03-09 04:05:00,23.7,20.9,30.41,WNW,287,0.0,0.0,89,0.00,,,0.00,VWS V14.01,2013-03-09 09:05:00,
2013-03-09 04:11:00,23.7,21.2,30.41,WNW,287,0.0,0.0,90,0.00,,,0.00,VWS V14.01,2013-03-09 09:11:00,
2013-03-09 04:16:00,24.2,21.7,30.42,WNW,287,0.0,1.0,90,0.00,,,0.00,VWS V14.01,2013-03-09 09:16:00,
2013-03-09 04:21:00,24.1,21.6,30.42,WNW,287,0.0,1.0,90,0.00,,,0.00,VWS V14.01,2013-03-09 09:21:00,
2013-03-09 04:26:00,23.8,21.3,30.42,WNW,287,0.0,1.0,90,0.00,,,0.00,VWS V14.01,2013-03-09 09:26:00,
2013-03-09 04:31:00,23.5,21.0,30.42,WNW,287,0.0,0.0,90,0.00,,,0.00,VWS V14.01,2013-03-09 09:31:00,
2013-03-09 04:36:00,23.2,20.7,30.42,WNW,287,1.0,1.0,90,0.00,,,0.00,VWS V14.01,2013-03-09 09:36:00,
2013-03-09 04:41:00,23.2,20.7,30.42,WNW,287,0.0,1.0,90,0.00,,,0.00,VWS V14.01,2013-03-09 09:41:00,
2013-03-09 04:46:00,23.1,20.6,30.42,WNW,287,0.0,1.0,90,0.00,,,0.00,VWS V14.01,2013-03-09 09:46:00,
2013-03-09 04:51:00,23.1,20.6,30.42,WNW,287,0.0,1.0,90,0.00,,,0.00,VWS V14.01,2013-03-09 09:51:00,
2013-03-09 04:56:00,23.1,20.6,30.42,WNW,287,0.0,1.0,90,0.00,,,0.00,VWS V14.01,2013-03-09 09:56:00,
2013-03-09 05:02:00,23.1,20.6,30.42,WNW,287,0.0,0.0,90,0.00,,,0.00,VWS V14.01,2013-03-09 10:02:00,
2013-03-09 05:07:00,23.0,20.5,30.42,WNW,287,0.0,0.0,90,0.00,,,0.00,VWS V14.01,2013-03-09 10:07:00,
2013-03-09 05:12:00,23.0,20.5,30.42,WNW,287,0.0,0.0,90,0.00,,,0.00,VWS V14.01,2013-03-09 10:12:00,
2013-03-09 05:17:00,22.9,20.7,30.42,WNW,287,0.0,0.0,91,0.00,,,0.00,VWS V14.01,2013-03-09 10:17:00,
2013-03-09 05:22:00,22.9,20.7,30.42,WNW,287,0.0,0.0,91,0.00,,,0.00,VWS V14.01,2013-03-09 10:22:00,
2013-03-09 05:27:00,22.9,20.7,30.42,WNW,287,0.0,0.0,91,0.00,,,0.00,VWS V14.01,2013-03-09 10:27:00,
2013-03-09 05:32:00,22.9,20.7,30.42,WNW,287,0.0,0.0,91,0.00,,,0.00,VWS V14.01,2013-03-09 10:32:00,
2013-03-09 05:37:00,22.9,20.7,30.42,WNW,287,0.0,0.0,91,0.00,,,0.00,VWS V14.01,2013-03-09 10:37:00,
2013-03-09 05:43:00,22.7,20.2,30.42,WNW,287,0.0,0.0,90,0.00,,,0.00,VWS V14.01,2013-03-09 10:43:00,
2013-03-09 05:48:00,22.7,20.2,30.42,WNW,287,0.0,0.0,90,0.00,,,0.00,VWS V14.01,2013-03-09 10:48:00,
2013-03-09 05:53:00,22.6,20.1,30.43,WNW,287,0.0,0.0,90,0.00,,,0.00,VWS V14.01,2013-03-09 10:53:00,
2013-03-09 05:58:00,22.4,19.9,30.43,WNW,287,0.0,0.0,90,0.00,,,0.00,VWS V14.01,2013-03-09 10:58:00,
2013-03-09 06:03:00,22.2,19.7,30.43,WNW,287,0.0,0.0,90,0.00,,,0.00,VWS V14.01,2013-03-09 11:03:00,
2013-03-09 06:08:00,22.2,19.7,30.43,WNW,287,0.0,0.0,90,0.00,,,0.00,VWS V14.01,2013-03-09 11:08:00,
2013-03-09 06:13:00,22.2,20.0,30.43,WNW,287,0.0,0.0,91,0.00,,,0.00,VWS V14.01,2013-03-09 11:13:00,
2013-03-09 06:18:00,22.1,19.6,30.43,WNW,287,0.0,0.0,90,0.00,,,0.00,VWS V14.01,2013-03-09 11:18:00,
2013-03-09 06:23:00,22.1,19.6,30.43,WNW,287,0.0,0.0,90,0.00,,,0.00,VWS V14.01,2013-03-09 11:23:00,
2013-03-09 06:28:00,22.1,19.9,30.43,WNW,287,0.0,0.0,91,0.00,,,0.00,VWS V14.01,2013-03-09 11:28:00,
2013-03-09 06:33:00,22.1,19.9,30.44,WNW,287,0.0,0.0,91,0.00,,,0.00,VWS V14.01,2013-03-09 11:33:00,
2013-03-09 06:39:00,22.0,19.8,30.44,WNW,287,0.0,0.0,91,0.00,,,0.00,VWS V14.01,2013-03-09 11:39:00,
2013-03-09 06:44:00,21.9,19.4,30.44,WNW,287,0.0,0.0,90,0.00,,,0.00,VWS V14.01,2013-03-09 11:44:00,
2013-03-09 06:49:00,21.7,19.2,30.44,WNW,287,0.0,0.0,90,0.00,,,0.00,VWS V14.01,2013-03-09 11:49:00,
2013-03-09 06:54:00,21.7,19.2,30.44,WNW,287,0.0,0.0,90,0.00,,,0.00,VWS V14.01,2013-03-09 11:54:00,
2013-03-09 06:59:00,21.7,19.2,30.44,WNW,287,0.0,0.0,90,0.00,,,0.00,VWS V14.01,2013-03-09 11:59:00,
2013-03-09 07:04:00,21.6,19.1,30.45,WNW,287,0.0,0.0,90,0.00,,,0.00,VWS V14.01,2013-03-09 12:04:00,
2013-03-09 07:09:00,21.6,19.4,30.45,WNW,287,0.0,0.0,91,0.00,,,0.00,VWS V14.01,2013-03-09 12:09:00,
2013-03-09 07:14:00,21.6,19.1,30.45,WNW,287,0.0,0.0,90,0.00,,,0.00,VWS V14.01,2013-03-09 12:14:00,
2013-03-09 07:19:00,21.7,19.5,30.45,WNW,287,0.0,0.0,91,0.00,,,0.00,VWS V14.01,2013-03-09 12:19:00,
2013-03-09 07:24:00,21.7,19.5,30.45,WNW,287,0.0,0.0,91,0.00,,,0.00,VWS V14.01,2013-03-09 12:24:00,
2013-03-09 07:29:00,21.9,19.7,30.45,WNW,287,0.0,0.0,91,0.00,,,0.00,VWS V14.01,2013-03-09 12:29:00,
2013-03-09 07:34:00,22.1,19.9,30.45,WNW,287,0.0,0.0,91,0.00,,,0.00,VWS V14.01,2013-03-09 12:34:00,
2013-03-09 07:40:00,22.4,20.2,30.46,WNW,287,0.0,0.0,91,0.00,,,0.00,VWS V14.01,2013-03-09 12:40:00,
2013-03-09 07:45:00,22.7,20.5,30.46,WNW,287,0.0,0.0,91,0.00,,,0.00,VWS V14.01,2013-03-09 12:45:00,
2013-03-09 07:50:00,23.0,20.8,30.46,WNW,287,0.0,0.0,91,0.00,,,0.00,VWS V14.01,2013-03-09 12:50:00,
2013-03-09 07:55:00,23.5,21.3,30.46,WNW,287,0.0,0.0,91,0.00,,,0.00,VWS V14.01,2013-03-09 12:55:00,
2013-03-09 08:00:00,23.9,21.9,30.46,WNW,287,0.0,0.0,92,0.00,,,0.00,VWS V14.01,2013-03-09 13:00:00,
2013-03-09 08:05:00,24.3,22.3,30.46,WNW,287,0.0,0.0,92,0.00,,,0.00,VWS V14.01,2013-03-09 13:05:00,
2013-03-09 08:10:00,24.6,22.6,30.46,WNW,287,0.0,0.0,92,0.00,,,0.00,VWS V14.01,2013-03-09 13:10:00,
2013-03-09 08:15:00,25.2,23.2,30.46,WNW,287,0.0,1.0,92,0.00,,,0.00,VWS V14.01,2013-03-09 13:15:00,
2013-03-09 08:20:00,25.9,23.9,30.46,WNW,287,0.0,1.0,92,0.00,,,0.00,VWS V14.01,2013-03-09 13:20:00,
2013-03-09 08:25:00,26.4,24.4,30.46,WNW,287,0.0,1.0,92,0.00,,,0.00,VWS V14.01,2013-03-09 13:25:00,
2013-03-09 08:31:00,26.9,24.9,30.45,WNW,287,1.0,2.0,92,0.00,,,0.00,VWS V14.01,2013-03-09 13:31:00,
2013-03-09 08:36:00,27.4,25.4,30.45,WNW,287,0.0,2.0,92,0.00,,,0.00,VWS V14.01,2013-03-09 13:36:00,
2013-03-09 08:41:00,27.8,25.8,30.45,WNW,287,0.0,2.0,92,0.00,,,0.00,VWS V14.01,2013-03-09 13:41:00,
2013-03-09 08:46:00,28.4,26.4,30.45,WNW,288,0.0,2.0,92,0.00,,,0.00,VWS V14.01,2013-03-09 13:46:00,
2013-03-09 08:51:00,29.2,27.2,30.45,NE,44,2.0,2.0,92,0.00,,,0.00,VWS V14.01,2013-03-09 13:51:00,
2013-03-09 08:56:00,29.6,27.6,30.45,ENE,57,0.0,2.0,92,0.00,,,0.00,VWS V14.01,2013-03-09 13:56:00,
2013-03-09 09:01:00,30.1,27.8,30.45,ENE,57,0.0,1.0,91,0.00,,,0.00,VWS V14.01,2013-03-09 14:01:00,
2013-03-09 09:06:00,30.8,28.5,30.45,ENE,57,0.0,2.0,91,0.00,,,0.00,VWS V14.01,2013-03-09 14:06:00,
2013-03-09 09:11:00,31.4,28.8,30.45,ENE,57,0.0,2.0,90,0.00,,,0.00,VWS V14.01,2013-03-09 14:11:00,
2013-03-09 09:16:00,32.1,29.0,30.44,ENE,59,0.0,3.0,88,0.00,,,0.00,VWS V14.01,2013-03-09 14:16:00,
2013-03-09 09:21:00,32.6,28.9,30.44,ENE,59,0.0,3.0,86,0.00,,,0.00,VWS V14.01,2013-03-09 14:21:00,
2013-03-09 09:27:00,33.1,29.1,30.44,ENE,59,1.0,3.0,85,0.00,,,0.00,VWS V14.01,2013-03-09 14:27:00,
2013-03-09 09:32:00,33.6,29.3,30.44,ENE,59,0.0,0.0,84,0.00,,,0.00,VWS V14.01,2013-03-09 14:32:00,
2013-03-09 09:37:00,34.2,29.6,30.44,ENE,58,0.0,2.0,83,0.00,,,0.00,VWS V14.01,2013-03-09 14:37:00,
2013-03-09 09:42:00,34.6,29.4,30.44,ENE,59,0.0,4.0,81,0.00,,,0.00,VWS V14.01,2013-03-09 14:42:00,
2013-03-09 09:47:00,34.8,29.3,30.44,NW,319,2.0,4.0,80,0.00,,,0.00,VWS V14.01,2013-03-09 14:47:00,
2013-03-09 09:52:00,35.1,29.6,30.44,East,82,0.0,4.0,80,0.00,,,0.00,VWS V14.01,2013-03-09 14:52:00,
2013-03-09 09:57:00,35.8,29.9,30.44,East,82,0.0,4.0,79,0.00,,,0.00,VWS V14.01,2013-03-09 14:57:00,
2013-03-09 10:02:00,36.4,30.2,30.44,East,81,0.0,1.0,78,0.00,,,0.00,VWS V14.01,2013-03-09 15:02:00,
2013-03-09 10:07:00,37.0,30.5,30.43,East,81,0.0,1.0,77,0.00,,,0.00,VWS V14.01,2013-03-09 15:07:00,
2013-03-09 10:12:00,37.4,29.9,30.43,East,87,1.0,3.0,74,0.00,,,0.00,VWS V14.01,2013-03-09 15:12:00,
2013-03-09 10:17:00,37.7,30.5,30.43,ENE,59,1.0,3.0,75,0.00,,,0.00,VWS V14.01,2013-03-09 15:17:00,
2013-03-09 10:22:00,38.1,30.6,30.43,NE,51,2.0,3.0,74,0.00,,,0.00,VWS V14.01,2013-03-09 15:22:00,
2013-03-09 10:27:00,38.3,29.7,30.43,North,360,0.0,3.0,71,0.00,,,0.00,VWS V14.01,2013-03-09 15:27:00,
2013-03-09 10:32:00,38.0,29.8,30.42,NNW,342,0.0,0.0,72,0.00,,,0.00,VWS V14.01,2013-03-09 15:32:00,
2013-03-09 10:38:00,38.3,30.4,30.42,ENE,69,1.0,3.0,73,0.00,,,0.00,VWS V14.01,2013-03-09 15:38:00,
2013-03-09 10:43:00,38.8,30.2,30.42,NW,319,0.0,3.0,71,0.00,,,0.00,VWS V14.01,2013-03-09 15:43:00,
2013-03-09 10:48:00,39.1,29.8,30.42,ENE,63,0.0,3.0,69,0.00,,,0.00,VWS V14.01,2013-03-09 15:48:00,
2013-03-09 10:53:00,39.4,30.4,30.42,North,350,0.0,3.0,70,0.00,,,0.00,VWS V14.01,2013-03-09 15:53:00,
2013-03-09 10:58:00,39.9,30.6,30.41,SE,130,3.0,4.0,69,0.00,,,0.00,VWS V14.01,2013-03-09 15:58:00,
2013-03-09 11:03:00,40.2,29.8,30.41,ESE,107,0.0,3.0,66,0.00,,,0.00,VWS V14.01,2013-03-09 16:03:00,
2013-03-09 11:08:00,40.4,30.0,30.41,SE,142,0.0,3.0,66,0.00,,,0.00,VWS V14.01,2013-03-09 16:08:00,
2013-03-09 11:13:00,40.4,30.3,30.41,WNW,288,3.0,4.0,67,0.00,,,0.00,VWS V14.01,2013-03-09 16:13:00,
2013-03-09 11:18:00,40.5,30.4,30.41,WNW,293,0.0,4.0,67,0.00,,,0.00,VWS V14.01,2013-03-09 16:18:00,
2013-03-09 11:23:00,40.6,30.9,30.41,NNW,341,2.0,4.0,68,0.00,,,0.00,VWS V14.01,2013-03-09 16:23:00,
2013-03-09 11:28:00,40.9,30.4,30.41,NNE,14,0.0,4.0,66,0.00,,,0.00,VWS V14.01,2013-03-09 16:28:00,
2013-03-09 11:34:00,41.6,31.1,30.41,WNW,302,3.0,3.0,66,0.00,,,0.00,VWS V14.01,2013-03-09 16:34:00,
2013-03-09 11:39:00,42.0,30.7,30.41,SSW,199,0.0,3.0,64,0.00,,,0.00,VWS V14.01,2013-03-09 16:39:00,
2013-03-09 11:44:00,42.4,30.3,30.41,WNW,286,0.0,3.0,62,0.00,,,0.00,VWS V14.01,2013-03-09 16:44:00,
2013-03-09 11:49:00,42.8,30.3,30.40,WNW,298,0.0,4.0,61,0.00,,,0.00,VWS V14.01,2013-03-09 16:49:00,
2013-03-09 11:54:00,43.3,32.0,30.40,West,266,0.0,4.0,64,0.00,,,0.00,VWS V14.01,2013-03-09 16:54:00,
2013-03-09 11:59:00,44.3,30.9,30.40,East,94,3.0,4.0,59,0.00,,,0.00,VWS V14.01,2013-03-09 16:59:00,
2013-03-09 12:04:00,45.0,32.4,30.39,North,10,0.0,2.0,61,0.00,,,0.00,VWS V14.01,2013-03-09 17:04:00,
2013-03-09 12:09:00,45.6,30.8,30.39,NE,43,0.0,5.0,56,0.00,,,0.00,VWS V14.01,2013-03-09 17:09:00,
2013-03-09 12:14:00,46.1,31.3,30.39,ESE,113,2.0,5.0,56,0.00,,,0.00,VWS V14.01,2013-03-09 17:14:00,
2013-03-09 12:19:00,45.8,31.5,30.38,NW,310,0.0,5.0,57,0.00,,,0.00,VWS V14.01,2013-03-09 17:19:00,
2013-03-09 12:25:00,46.0,31.2,30.38,NE,55,0.0,5.0,56,0.00,,,0.00,VWS V14.01,2013-03-09 17:25:00,
2013-03-09 12:30:00,46.2,31.8,30.38,East,89,2.0,5.0,57,0.00,,,0.00,VWS V14.01,2013-03-09 17:30:00,
2013-03-09 12:35:00,46.5,31.7,30.38,ENE,78,2.0,3.0,56,0.00,,,0.00,VWS V14.01,2013-03-09 17:35:00,
2013-03-09 12:40:00,46.8,32.0,30.37,West,266,0.0,4.0,56,0.00,,,0.00,VWS V14.01,2013-03-09 17:40:00,
2013-03-09 12:45:00,47.0,32.1,30.37,NW,306,2.0,6.0,56,0.00,,,0.00,VWS V14.01,2013-03-09 17:45:00,
2013-03-09 12:50:00,46.9,31.6,30.37,South,176,0.0,6.0,55,0.00,,,0.00,VWS V14.01,2013-03-09 17:50:00,
2013-03-09 12:55:00,47.4,32.1,30.37,South,177,2.0,6.0,55,0.00,,,0.00,VWS V14.01,2013-03-09 17:55:00,
2013-03-09 13:00:00,48.0,33.1,30.36,South,177,0.0,0.0,56,0.00,,,0.00,VWS V14.01,2013-03-09 18:00:00,
2013-03-09 13:05:00,48.8,33.4,30.36,WSW,240,2.0,3.0,55,0.00,,,0.00,VWS V14.01,2013-03-09 18:05:00,
2013-03-09 13:10:00,48.9,32.1,30.36,West,262,2.0,4.0,52,0.00,,,0.00,VWS V14.01,2013-03-09 18:10:00,
2013-03-09 13:15:00,49.1,32.7,30.36,East,83,2.0,5.0,53,0.00,,,0.00,VWS V14.01,2013-03-09 18:15:00,
2013-03-09 13:20:00,49.4,31.1,30.36,East,100,0.0,5.0,49,0.00,,,0.00,VWS V14.01,2013-03-09 18:20:00,
2013-03-09 13:25:00,49.6,31.7,30.35,NNW,340,6.0,6.0,50,0.00,,,0.00,VWS V14.01,2013-03-09 18:25:00,
2013-03-09 13:30:00,49.5,33.1,30.35,NNW,334,2.0,3.0,53,0.00,,,0.00,VWS V14.01,2013-03-09 18:30:00,
2013-03-09 13:35:00,49.8,31.9,30.35,WNW,289,2.0,4.0,50,0.00,,,0.00,VWS V14.01,2013-03-09 18:35:00,
2013-03-09 13:41:00,50.0,32.6,30.35,NE,51,1.0,4.0,51,0.00,,,0.00,VWS V14.01,2013-03-09 18:41:00,
2013-03-09 13:46:00,50.7,32.8,30.34,NE,36,0.0,4.0,50,0.00,,,0.00,VWS V14.01,2013-03-09 18:46:00,
2013-03-09 13:51:00,51.5,32.5,30.34,SW,229,3.0,4.0,48,0.00,,,0.00,VWS V14.01,2013-03-09 18:51:00,
2013-03-09 13:56:00,51.8,32.2,30.33,North,360,2.0,4.0,47,0.00,,,0.00,VWS V14.01,2013-03-09 18:56:00,
2013-03-09 14:01:00,52.2,29.8,30.33,NE,55,4.0,4.0,42,0.00,,,0.00,VWS V14.01,2013-03-09 19:01:00,
2013-03-09 14:06:00,52.2,29.2,30.33,SSE,155,0.0,7.0,41,0.00,,,0.00,VWS V14.01,2013-03-09 19:06:00,
2013-03-09 14:11:00,52.3,29.9,30.33,South,172,3.0,7.0,42,0.00,,,0.00,VWS V14.01,2013-03-09 19:11:00,
2013-03-09 14:16:00,52.4,30.6,30.33,NW,314,4.0,7.0,43,0.00,,,0.00,VWS V14.01,2013-03-09 19:16:00,
2013-03-09 14:21:00,52.7,30.9,30.33,NNW,346,0.0,7.0,43,0.00,,,0.00,VWS V14.01,2013-03-09 19:21:00,
2013-03-09 14:26:00,53.1,31.2,30.33,NNW,327,0.0,7.0,43,0.00,,,0.00,VWS V14.01,2013-03-09 19:26:00,
2013-03-09 14:31:00,53.1,30.6,30.32,WNW,292,4.0,4.0,42,0.00,,,0.00,VWS V14.01,2013-03-09 19:31:00,
2013-03-09 14:36:00,53.0,30.5,30.32,WNW,284,0.0,4.0,42,0.00,,,0.00,VWS V14.01,2013-03-09 19:36:00,
2013-03-09 14:41:00,53.3,30.2,30.32,North,360,0.0,4.0,41,0.00,,,0.00,VWS V14.01,2013-03-09 19:41:00,
2013-03-09 14:46:00,53.9,31.9,30.31,East,101,0.0,5.0,43,0.00,,,0.00,VWS V14.01,2013-03-09 19:46:00,
2013-03-09 14:51:00,54.5,30.7,30.31,SSE,168,1.0,5.0,40,0.00,,,0.00,VWS V14.01,2013-03-09 19:51:00,
2013-03-09 14:56:00,54.7,30.9,30.31,SSE,150,1.0,5.0,40,0.00,,,0.00,VWS V14.01,2013-03-09 19:56:00,
2013-03-09 15:01:00,54.9,32.8,30.31,SSE,153,0.0,3.0,43,0.00,,,0.00,VWS V14.01,2013-03-09 20:01:00,
2013-03-09 15:06:00,55.3,30.8,30.30,ENE,76,3.0,3.0,39,0.00,,,0.00,VWS V14.01,2013-03-09 20:06:00,
2013-03-09 15:12:00,55.5,31.0,30.30,ESE,112,1.0,5.0,39,0.00,,,0.00,VWS V14.01,2013-03-09 20:12:00,
2013-03-09 15:17:00,55.8,31.2,30.30,ENE,57,3.0,5.0,39,0.00,,,0.00,VWS V14.01,2013-03-09 20:17:00,
2013-03-09 15:22:00,55.6,30.4,30.30,NE,39,0.0,5.0,38,0.00,,,0.00,VWS V14.01,2013-03-09 20:22:00,
2013-03-09 15:27:00,55.4,29.6,30.30,ENE,76,0.0,5.0,37,0.00,,,0.00,VWS V14.01,2013-03-09 20:27:00,
2013-03-09 15:32:00,55.4,29.6,30.30,ESE,109,0.0,5.0,37,0.00,,,0.00,VWS V14.01,2013-03-09 20:32:00,
2013-03-09 15:37:00,55.7,29.9,30.29,ESE,109,0.0,5.0,37,0.00,,,0.00,VWS V14.01,2013-03-09 20:37:00,
2013-03-09 15:42:00,55.8,31.9,30.29,ESE,109,0.0,5.0,40,0.00,,,0.00,VWS V14.01,2013-03-09 20:42:00,
2013-03-09 15:47:00,56.1,30.2,30.29,ESE,109,0.0,5.0,37,0.00,,,0.00,VWS V14.01,2013-03-09 20:47:00,
2013-03-09 15:52:00,56.7,32.0,30.28,ESE,109,0.0,5.0,39,0.00,,,0.00,VWS V14.01,2013-03-09 20:52:00,
2013-03-09 15:57:00,57.2,31.8,30.28,ESE,108,4.0,5.0,38,0.00,,,0.00,VWS V14.01,2013-03-09 20:57:00,
2013-03-09 16:02:00,57.2,29.8,30.28,ESE,109,0.0,0.0,35,0.00,,,0.00,VWS V14.01,2013-03-09 21:02:00,
2013-03-09 16:07:00,57.4,31.4,30.28,ESE,119,0.0,2.0,37,0.00,,,0.00,VWS V14.01,2013-03-09 21:07:00,
2013-03-09 16:12:00,57.8,30.4,30.27,ESE,119,0.0,2.0,35,0.00,,,0.00,VWS V14.01,2013-03-09 21:12:00,
2013-03-09 16:17:00,58.2,30.7,30.27,ESE,119,2.0,2.0,35,0.00,,,0.00,VWS V14.01,2013-03-09 21:17:00,
2013-03-09 16:22:00,58.2,30.7,30.27,ESE,119,1.0,2.0,35,0.00,,,0.00,VWS V14.01,2013-03-09 21:22:00,
2013-03-09 16:27:00,58.2,30.7,30.27,ESE,119,0.0,2.0,35,0.00,,,0.00,VWS V14.01,2013-03-09 21:27:00,
2013-03-09 16:33:00,58.5,30.2,30.27,SSE,163,4.0,4.0,34,0.00,,,0.00,VWS V14.01,2013-03-09 21:33:00,
2013-03-09 16:38:00,58.3,29.3,30.27,SSW,205,0.0,4.0,33,0.00,,,0.00,VWS V14.01,2013-03-09 21:38:00,
2013-03-09 16:43:00,58.3,29.3,30.27,SSW,205,0.0,4.0,33,0.00,,,0.00,VWS V14.01,2013-03-09 21:43:00,
2013-03-09 16:48:00,58.8,31.2,30.27,SSW,205,0.0,4.0,35,0.00,,,0.00,VWS V14.01,2013-03-09 21:48:00,
2013-03-09 16:53:00,59.1,30.0,30.27,ESE,118,2.0,4.0,33,0.00,,,0.00,VWS V14.01,2013-03-09 21:53:00,
2013-03-09 16:58:00,59.2,28.6,30.27,ESE,118,0.0,4.0,31,0.00,,,0.00,VWS V14.01,2013-03-09 21:58:00,
2013-03-09 17:03:00,58.9,29.1,30.27,ESE,118,0.0,2.0,32,0.00,,,0.00,VWS V14.01,2013-03-09 22:03:00,
2013-03-09 17:08:00,58.3,28.6,30.26,ESE,118,0.0,2.0,32,0.00,,,0.00,VWS V14.01,2013-03-09 22:08:00,
2013-03-09 17:13:00,57.6,28.7,30.26,ESE,118,0.0,2.0,33,0.00,,,0.00,VWS V14.01,2013-03-09 22:13:00,
2013-03-09 17:18:00,57.3,29.2,30.26,ESE,118,0.0,2.0,34,0.00,,,0.00,VWS V14.01,2013-03-09 22:18:00,
2013-03-09 17:23:00,57.5,29.4,30.26,ESE,118,0.0,2.0,34,0.00,,,0.00,VWS V14.01,2013-03-09 22:23:00,
2013-03-09 17:28:00,57.5,28.6,30.26,ESE,118,0.0,4.0,33,0.00,,,0.00,VWS V14.01,2013-03-09 22:28:00,
2013-03-09 17:33:00,57.4,28.5,30.26,ESE,118,0.0,2.0,33,0.00,,,0.00,VWS V14.01,2013-03-09 22:33:00,
2013-03-09 17:38:00,57.1,27.5,30.26,ESE,118,0.0,2.0,32,0.00,,,0.00,VWS V14.01,2013-03-09 22:38:00,
2013-03-09 17:43:00,56.9,28.1,30.26,ESE,118,0.0,2.0,33,0.00,,,0.00,VWS V14.01,2013-03-09 22:43:00,
2013-03-09 17:48:00,56.9,28.1,30.26,ESE,118,0.0,2.0,33,0.00,,,0.00,VWS V14.01,2013-03-09 22:48:00,
2013-03-09 17:53:00,56.9,28.1,30.25,ESE,118,0.0,2.0,33,0.00,,,0.00,VWS V14.01,2013-03-09 22:53:00,
2013-03-09 17:58:00,56.9,28.1,30.25,ESE,118,0.0,2.0,33,0.00,,,0.00,VWS V14.01,2013-03-09 22:58:00,
2013-03-09 18:03:00,56.8,28.0,30.26,ESE,118,0.0,0.0,33,0.00,,,0.00,VWS V14.01,2013-03-09 23:03:00,
2013-03-09 18:09:00,56.5,27.8,30.26,ESE,118,0.0,0.0,33,0.00,,,0.00,VWS V14.01,2013-03-09 23:09:00,
2013-03-09 18:14:00,55.9,28.0,30.26,ESE,118,0.0,0.0,34,0.00,,,0.00,VWS V14.01,2013-03-09 23:14:00,
2013-03-09 18:19:00,55.2,27.3,30.26,ESE,118,0.0,0.0,34,0.00,,,0.00,VWS V14.01,2013-03-09 23:19:00,
2013-03-09 18:24:00,54.6,27.5,30.26,ESE,118,0.0,0.0,35,0.00,,,0.00,VWS V14.01,2013-03-09 23:24:00,
2013-03-09 18:29:00,54.0,27.0,30.26,ESE,118,0.0,0.0,35,0.00,,,0.00,VWS V14.01,2013-03-09 23:29:00,
2013-03-09 18:34:00,53.5,27.2,30.25,ESE,118,0.0,0.0,36,0.00,,,0.00,VWS V14.01,2013-03-09 23:34:00,
2013-03-09 18:39:00,53.2,27.0,30.25,ESE,118,0.0,0.0,36,0.00,,,0.00,VWS V14.01,2013-03-09 23:39:00,
2013-03-09 18:44:00,52.9,27.4,30.26,ESE,118,0.0,0.0,37,0.00,,,0.00,VWS V14.01,2013-03-09 23:44:00,
2013-03-09 18:49:00,52.7,27.8,30.26,ESE,118,0.0,0.0,38,0.00,,,0.00,VWS V14.01,2013-03-09 23:49:00,
2013-03-09 18:54:00,52.4,26.9,30.25,ESE,118,0.0,0.0,37,0.00,,,0.00,VWS V14.01,2013-03-09 23:54:00,
2013-03-09 18:59:00,52.2,27.4,30.26,ESE,118,0.0,0.0,38,0.00,,,0.00,VWS V14.01,2013-03-09 23:59:00,
2013-03-09 19:04:00,51.9,27.1,30.25,ESE,118,0.0,0.0,38,0.00,,,0.00,VWS V14.01,2013-03-10 00:04:00,
2013-03-09 19:10:00,51.6,26.8,30.25,ESE,118,0.0,0.0,38,0.00,,,0.00,VWS V14.01,2013-03-10 00:10:00,
2013-03-09 19:15:00,51.2,26.5,30.25,ESE,118,0.0,0.0,38,0.00,,,0.00,VWS V14.01,2013-03-10 00:15:00,
2013-03-09 19:20:00,50.8,26.8,30.25,ESE,118,0.0,0.0,39,0.00,,,0.00,VWS V14.01,2013-03-10 00:20:00,
2013-03-09 19:25:00,50.5,26.5,30.26,ESE,118,0.0,0.0,39,0.00,,,0.00,VWS V14.01,2013-03-10 00:25:00,
2013-03-09 19:30:00,50.2,26.8,30.26,ESE,118,0.0,0.0,40,0.00,,,0.00,VWS V14.01,2013-03-10 00:30:00,
2013-03-09 19:35:00,49.9,26.6,30.25,ESE,118,0.0,0.0,40,0.00,,,0.00,VWS V14.01,2013-03-10 00:35:00,
2013-03-09 19:40:00,49.6,26.3,30.25,ESE,118,0.0,0.0,40,0.00,,,0.00,VWS V14.01,2013-03-10 00:40:00,
2013-03-09 19:45:00,49.6,26.3,30.25,ESE,118,0.0,0.0,40,0.00,,,0.00,VWS V14.01,2013-03-10 00:45:00,
2013-03-09 19:50:00,49.6,26.3,30.25,ESE,118,0.0,0.0,40,0.00,,,0.00,VWS V14.01,2013-03-10 00:50:00,
2013-03-09 19:55:00,49.4,26.7,30.25,ESE,118,0.0,0.0,41,0.00,,,0.00,VWS V14.01,2013-03-10 00:55:00,
2013-03-09 20:00:00,49.3,26.6,30.25,ESE,118,0.0,0.0,41,0.00,,,0.00,VWS V14.01,2013-03-10 01:00:00,
2013-03-09 20:06:00,49.1,26.4,30.25,ESE,118,0.0,0.0,41,0.00,,,0.00,VWS V14.01,2013-03-10 01:06:00,
2013-03-09 20:11:00,48.9,26.2,30.25,ESE,118,0.0,0.0,41,0.00,,,0.00,VWS V14.01,2013-03-10 01:11:00,
2013-03-09 20:16:00,48.7,26.1,30.25,ESE,118,0.0,0.0,41,0.00,,,0.00,VWS V14.01,2013-03-10 01:16:00,
2013-03-09 20:21:00,48.3,25.7,30.24,ESE,118,0.0,0.0,41,0.00,,,0.00,VWS V14.01,2013-03-10 01:21:00,
2013-03-09 20:26:00,48.1,25.5,30.24,ESE,118,0.0,0.0,41,0.00,,,0.00,VWS V14.01,2013-03-10 01:26:00,
2013-03-09 20:31:00,47.9,25.4,30.24,ESE,118,0.0,0.0,41,0.00,,,0.00,VWS V14.01,2013-03-10 01:31:00,
2013-03-09 20:36:00,47.9,25.4,30.24,ESE,118,0.0,0.0,41,0.00,,,0.00,VWS V14.01,2013-03-10 01:36:00,
2013-03-09 20:41:00,47.8,24.7,30.24,ESE,118,0.0,0.0,40,0.00,,,0.00,VWS V14.01,2013-03-10 01:41:00,
2013-03-09 20:46:00,47.7,24.0,30.24,ESE,118,0.0,0.0,39,0.00,,,0.00,VWS V14.01,2013-03-10 01:46:00,
2013-03-09 20:51:00,47.6,23.9,30.24,ESE,118,0.0,0.0,39,0.00,,,0.00,VWS V14.01,2013-03-10 01:51:00,
2013-03-09 20:56:00,47.4,23.7,30.24,ESE,118,0.0,0.0,39,0.00,,,0.00,VWS V14.01,2013-03-10 01:56:00,
2013-03-09 21:01:00,47.3,24.2,30.24,ESE,118,0.0,0.0,40,0.00,,,0.00,VWS V14.01,2013-03-10 02:01:00,
2013-03-09 21:06:00,47.1,24.6,30.24,ESE,118,0.0,0.0,41,0.00,,,0.00,VWS V14.01,2013-03-10 02:06:00,
2013-03-09 21:11:00,46.9,25.0,30.24,ESE,118,0.0,0.0,42,0.00,,,0.00,VWS V14.01,2013-03-10 02:11:00,
2013-03-09 21:16:00,46.7,24.8,30.24,ESE,118,0.0,0.0,42,0.00,,,0.00,VWS V14.01,2013-03-10 02:16:00,
2013-03-09 21:21:00,46.4,24.6,30.24,ESE,118,0.0,0.0,42,0.00,,,0.00,VWS V14.01,2013-03-10 02:21:00,
2013-03-09 21:26:00,45.9,24.1,30.24,ESE,118,0.0,0.0,42,0.00,,,0.00,VWS V14.01,2013-03-10 02:26:00,
2013-03-09 21:31:00,45.4,25.3,30.24,ESE,118,0.0,0.0,45,0.00,,,0.00,VWS V14.01,2013-03-10 02:31:00,
2013-03-09 21:36:00,45.0,25.5,30.24,ESE,118,0.0,0.0,46,0.00,,,0.00,VWS V14.01,2013-03-10 02:36:00,
2013-03-09 21:42:00,44.6,28.1,30.24,ESE,118,0.0,0.0,52,0.00,,,0.00,VWS V14.01,2013-03-10 02:42:00,
2013-03-09 21:47:00,43.9,28.8,30.24,ESE,118,0.0,2.0,55,0.00,,,0.00,VWS V14.01,2013-03-10 02:47:00,
2013-03-09 21:52:00,43.3,28.7,30.24,ESE,118,0.0,2.0,56,0.00,,,0.00,VWS V14.01,2013-03-10 02:52:00,
2013-03-09 21:57:00,42.8,29.1,30.23,ESE,118,0.0,2.0,58,0.00,,,0.00,VWS V14.01,2013-03-10 02:57:00,
2013-03-09 22:02:00,42.5,27.5,30.23,ESE,118,0.0,0.0,55,0.00,,,0.00,VWS V14.01,2013-03-10 03:02:00,
2013-03-09 22:07:00,42.8,27.3,30.23,ESE,118,0.0,0.0,54,0.00,,,0.00,VWS V14.01,2013-03-10 03:07:00,
2013-03-09 22:12:00,42.9,27.4,30.23,ESE,118,0.0,0.0,54,0.00,,,0.00,VWS V14.01,2013-03-10 03:12:00,
2013-03-09 22:17:00,42.9,27.0,30.23,ESE,118,1.0,1.0,53,0.00,,,0.00,VWS V14.01,2013-03-10 03:17:00,
2013-03-09 22:22:00,43.0,28.0,30.23,ESE,118,1.0,2.0,55,0.00,,,0.00,VWS V14.01,2013-03-10 03:22:00,
2013-03-09 22:27:00,42.5,27.9,30.23,ESE,118,0.0,2.0,56,0.00,,,0.00,VWS V14.01,2013-03-10 03:27:00,
2013-03-09 22:32:00,42.5,24.7,30.23,ESE,118,0.0,0.0,49,0.00,,,0.00,VWS V14.01,2013-03-10 03:32:00,
2013-03-09 22:37:00,42.9,24.1,30.23,ESE,118,0.0,1.0,47,0.00,,,0.00,VWS V14.01,2013-03-10 03:37:00,
2013-03-09 22:42:00,43.4,24.0,30.23,ESE,118,0.0,1.0,46,0.00,,,0.00,VWS V14.01,2013-03-10 03:42:00,
2013-03-09 22:47:00,43.6,24.2,30.23,ESE,118,0.0,1.0,46,0.00,,,0.00,VWS V14.01,2013-03-10 03:47:00,
2013-03-09 22:52:00,43.7,23.2,30.23,ESE,118,0.0,1.0,44,0.00,,,0.00,VWS V14.01,2013-03-10 03:52:00,
2013-03-09 22:57:00,43.6,24.2,30.23,ESE,118,0.0,1.0,46,0.00,,,0.00,VWS V14.01,2013-03-10 03:57:00,
2013-03-09 23:02:00,43.3,24.4,30.22,ESE,118,0.0,1.0,47,0.00,,,0.00,VWS V14.01,2013-03-10 04:02:00,
2013-03-09 23:07:00,43.1,25.3,30.22,ESE,118,0.0,1.0,49,0.00,,,0.00,VWS V14.01,2013-03-10 04:07:00,
2013-03-09 23:12:00,42.8,25.9,30.22,ESE,118,0.0,2.0,51,0.00,,,0.00,VWS V14.01,2013-03-10 04:12:00,
2013-03-09 23:17:00,42.7,25.4,30.22,ESE,118,0.0,2.0,50,0.00,,,0.00,VWS V14.01,2013-03-10 04:17:00,
2013-03-09 23:22:00,42.9,25.6,30.22,ESE,118,0.0,2.0,50,0.00,,,0.00,VWS V14.01,2013-03-10 04:22:00,
2013-03-09 23:27:00,43.1,25.3,30.22,ESE,118,0.0,2.0,49,0.00,,,0.00,VWS V14.01,2013-03-10 04:27:00,
2013-03-09 23:32:00,43.2,25.4,30.22,ESE,118,0.0,0.0,49,0.00,,,0.00,VWS V14.01,2013-03-10 04:32:00,
2013-03-09 23:37:00,43.4,25.0,30.22,ESE,118,0.0,0.0,48,0.00,,,0.00,VWS V14.01,2013-03-10 04:37:00,
2013-03-09 23:43:00,43.6,24.7,30.22,ESE,118,0.0,0.0,47,0.00,,,0.00,VWS V14.01,2013-03-10 04:43:00,
2013-03-09 23:48:00,43.6,25.2,30.22,ESE,118,0.0,0.0,48,0.00,,,0.00,VWS V14.01,2013-03-10 04:48:00,
2013-03-09 23:53:00,43.5,25.1,30.22,ESE,118,0.0,0.0,48,0.00,,,0.00,VWS V14.01,2013-03-10 04:53:00,
2013-03-09 23:58:00,43.3,24.4,30.22,ESE,118,0.0,0.0,47,0.00,,,0.00,VWS V14.01,2013-03-10 04:58:00,